Location: Poughquag
(41.6090°N, 73.6820°W)
Time: 00:01:49
(UTC-04:00)

X-37B - Pass Details

Date: 10 June 2023
Orbit: 277 x 277 km, 45.0° (Epoch: 01 November)

Event Time Altitude Azimuth Distance (km) Brightness Sun altitude
Exits shadow 04:14:01 20° 222° (SW) 712 1.3 -10.6°
Maximum altitude 04:15:25 48° 154° (SSE) 372 0.3 -10.4°
Drops below altitude 10° 04:17:48 10° 78° (ENE) 1,100 3.9 -10.0°
Sets 04:19:45 0° 72° (ENE) 1,916 5.4 -9.8°
